Clemson, SC

2:07 PM EST on January 23, 2018 (GMT -0500)
Oconee County Regional

Weather History for KCEU - August, 2014

Change the Weather History Date:

Saturday, August 2, 2014

  Actual Average Record
Temperature  
Mean Temperature 74 °F -  
Max Temperature 81 °F 88 °F 100 °F (2011)
Min Temperature 68 °F 67 °F 58 °F (1930)
Cooling Degree Days 8    
Growing Degree Days 24 (Base 50)    
Moisture  
Dew Point 64 °F    
Average Humidity 73    
Maximum Humidity 87    
Minimum Humidity 60    
Precipitation  
Precipitation 0.00 in - - ()
Sea Level Pressure  
Sea Level Pressure 30.10 in    
Wind  
Wind Speed 4 mph (ENE)    
Max Wind Speed 9 mph    
Max Gust Speed -    
Visibility 10 miles    
Events      
Averages and records for this station are not official NWS values.
T = Trace of Precipitation, MM = Missing Value Source: NWS Daily Summary

Daily Weather History Graph

Daily Weather History Graph

Search for Another Location

Airport or City:

Trip Planner

Search our weather history database for the weather conditions in past years. The results will help you decide how hot, cold, wet, or windy it might be!

Date:

Astronomy

Aug. 02, 2014 Rise Set
Actual Time 6:42 AM EDT 8:32 PM EDT
Civil Twilight 6:14 AM EDT 9:00 PM EDT
Nautical Twilight 5:41 AM EDT 9:33 PM EDT
Astronomical Twilight 5:05 AM EDT 10:08 PM EDT
Moon 12:45 PM EDT (8/2) No Moon Set
Length of Visible Light 14h 45m
Length of Day
13h 50m
Waxing Crescent, 36% of the Moon is Illuminated
Aug 2
Waxing Crescent
Aug 3
First Quarter
Aug 10
Full
Aug 17
Last Quarter
Aug 25
New

Hourly Weather History & Observations

Time (EDT) Temp. Dew Point Humidity Pressure Visibility Wind Dir Wind Speed Gust Speed Precip Events Conditions
12:16 AM 68.0 °F 62.1 °F 81% 30.13 in 10.0 mi Calm Calm - N/A   Mostly Cloudy
12:54 AM 69.1 °F 62.1 °F 78% 30.11 in 10.0 mi ENE 4.6 mph - N/A   Overcast
1:54 AM 70.0 °F 62.1 °F 76% 30.09 in 10.0 mi East 3.5 mph - N/A   Overcast
2:49 AM 69.8 °F 62.6 °F 78% 30.11 in 10.0 mi ENE 6.9 mph - N/A   Partly Cloudy
2:54 AM 70.0 °F 62.1 °F 76% 30.08 in 10.0 mi ENE 8.1 mph - N/A   Partly Cloudy
3:54 AM 69.1 °F 62.1 °F 78% 30.08 in 10.0 mi NE 6.9 mph - N/A   Clear
4:54 AM 68.0 °F 62.1 °F 81% 30.07 in 10.0 mi ENE 4.6 mph - N/A   Partly Cloudy
5:54 AM 68.0 °F 62.1 °F 81% 30.08 in 10.0 mi ENE 3.5 mph - N/A   Clear
6:54 AM 68.0 °F 62.1 °F 81% 30.09 in 10.0 mi East 6.9 mph - N/A   Clear
7:54 AM 69.1 °F 62.1 °F 78% 30.09 in 10.0 mi ESE 3.5 mph - N/A   Clear
8:54 AM 70.0 °F 63.0 °F 78% 30.10 in 10.0 mi East 4.6 mph - N/A   Clear
9:54 AM 73.0 °F 63.0 °F 71% 30.12 in 10.0 mi Variable 4.6 mph - N/A   Partly Cloudy
10:54 AM 77.0 °F 64.0 °F 64% 30.12 in 10.0 mi ENE 9.2 mph - N/A   Partly Cloudy
11:13 AM 75.9 °F 64.0 °F 67% 30.15 in 10.0 mi ENE 6.9 mph - N/A   Mostly Cloudy
11:54 AM 77.0 °F 64.0 °F 64% 30.12 in 10.0 mi East 6.9 mph - N/A   Overcast
12:54 PM 78.1 °F 63.0 °F 60% 30.11 in 10.0 mi East 6.9 mph - N/A   Scattered Clouds
1:46 PM 78.1 °F 64.0 °F 62% 30.13 in 10.0 mi East 5.8 mph - N/A   Mostly Cloudy
1:54 PM 78.1 °F 64.0 °F 62% 30.10 in 10.0 mi Variable 4.6 mph - N/A   Mostly Cloudy
2:54 PM 79.0 °F 64.0 °F 60% 30.09 in 10.0 mi East 4.6 mph - N/A   Mostly Cloudy
3:54 PM 79.0 °F 64.0 °F 60% 30.08 in 10.0 mi Variable 5.8 mph - N/A   Overcast
4:45 PM 79.0 °F 64.0 °F 60% 30.11 in 10.0 mi Variable 3.5 mph - N/A   Mostly Cloudy
4:54 PM 79.0 °F 64.9 °F 62% 30.08 in 10.0 mi SE 4.6 mph - N/A   Scattered Clouds
5:54 PM 79.0 °F 64.9 °F 62% 30.06 in 10.0 mi SE 5.8 mph - N/A   Clear
6:54 PM 75.9 °F 66.9 °F 74% 30.07 in 10.0 mi Calm Calm - N/A   Partly Cloudy
7:54 PM 75.0 °F 68.0 °F 79% 30.04 in 10.0 mi East 4.6 mph - N/A   Clear
8:54 PM 73.9 °F 68.0 °F 82% 30.07 in 10.0 mi NNW 3.5 mph - N/A   Clear
9:54 PM 73.0 °F 68.0 °F 84% 30.08 in 10.0 mi NE 3.5 mph - N/A   Clear
10:54 PM 71.1 °F 66.9 °F 87% 30.09 in 10.0 mi Calm Calm - N/A   Clear
11:54 PM 71.1 °F 66.9 °F 87% 30.11 in 9.0 mi Calm Calm - N/A   Clear